Live-Position
3D-Globus wird geladen...
Über Starlink 32714
Group: 3 satellites
Beschreibung wird geladen...
Nächste Überflüge
Passes for default location (London). Set your location on the main map for personalized predictions.
Höhenverlauf
Loading altitude history...
No altitude history available
Zweizeiliger Elementsatz
1 62499U 25003N 26124.30855720 .00024409 00000-0 89381-3 0 9996
2 62499 43.0014 335.2225 0001198 275.7032 84.3683 15.27572563 75176
Epoch: 4. Mai 2026 •
Age: 9 hours
Aktueller Status
Höhe 485.5 km
Geschwindigkeit 7.62 km/s
Subsatellitenpunkt -14.24°S,
64.4°E
Startdatum 6. Jan. 2025
Alter 1.3 years
Typ internet
Startgruppe
Falcon 9 •
Group 6-71 •
24 satellites
Starlink 32713
62487
Starlink 32732 62488
Starlink 32328 62489
Starlink 32332 62490
Starlink 32717 62491
Starlink 32757 62492
Starlink 32731 62493
Starlink 32694 62494
Starlink 32708 62495
Starlink 32718 62496
Starlink 32729 62497
Starlink 32739 62498
Starlink 32685 62500
Starlink 32691 62501
Starlink 32788 62502
Starlink 32768 62503
Starlink 32792 62504
Starlink 32725 62505
Starlink 32681 62506
Starlink 32679 62507
...and 3 more
Technische Details
Klassifizierung Payload
Masse 730.00 kg
Trockenmasse 700.00 kg
Gesamtmasse 730.00 kg
Länge 0.30 m
Durchmesser 4.10 m
Spannweite 29.00 m
Form Box + pan
Hersteller SPXS
Bus-Typ Starlink V2M
Phasenstatus In Orbit
Besitzer/Staat SPXS/US
Most Searched
Loading...